THY268 LTFM-LTAI

Flight info

Callsign THY268
Flight time 1h 19m
Altitude 33000
Route RATVU1D/35L RATVU UT35 BABSA
Aircraft B38M/M-SDE1FGHILORVWXY/HB1

Departure

Time 2026-05-05 15:21
Airport İstanbul Airport (LTFM)

Arrival

Time 2026-05-05 16:40
Airport Antalya International Airport (LTAI)
Time Latitude Longitude Altitude Speed Heading
2026-05-05 14:50 41.26331 28.73931 334 ft 0 kts 195°
2026-05-05 15:07 41.26339 28.73934 334 ft 2 kts 192°
2026-05-05 15:07 41.26353 28.73937 334 ft 2 kts 186°
2026-05-05 15:08 41.26367 28.73938 334 ft 2 kts 181°
2026-05-05 15:08 41.26381 28.73937 334 ft 2 kts 175°
2026-05-05 15:08 41.26395 28.73935 334 ft 2 kts 169°
2026-05-05 15:08 41.26410 28.73931 334 ft 2 kts 164°
2026-05-05 15:09 41.26424 28.73924 334 ft 2 kts 158°
2026-05-05 15:09 41.26437 28.73917 334 ft 2 kts 159°
2026-05-05 15:09 41.26443 28.73914 334 ft 0 kts 159°
2026-05-05 15:14 41.26431 28.73921 334 ft 8 kts 155°
2026-05-05 15:15 41.26424 28.74013 334 ft 13 kts 31°
2026-05-05 15:15 41.26518 28.74021 334 ft 15 kts 359°
2026-05-05 15:15 41.26641 28.74019 334 ft 20 kts 360°
2026-05-05 15:15 41.26766 28.74020 334 ft 18 kts
2026-05-05 15:16 41.26886 28.74014 334 ft 16 kts 357°
2026-05-05 15:16 41.26995 28.74010 334 ft 14 kts 357°
2026-05-05 15:16 41.27040 28.73923 334 ft 12 kts 266°
2026-05-05 15:16 41.27037 28.73814 334 ft 13 kts 269°
2026-05-05 15:17 41.27037 28.73653 334 ft 20 kts 271°
2026-05-05 15:17 41.27034 28.73427 334 ft 27 kts 269°
2026-05-05 15:17 41.27035 28.73185 334 ft 25 kts 272°
2026-05-05 15:17 41.26996 28.72997 334 ft 20 kts 196°
2026-05-05 15:18 41.26864 28.72990 334 ft 20 kts 178°
2026-05-05 15:18 41.26751 28.72994 334 ft 8 kts 186°
2026-05-05 15:18 41.26719 28.72968 334 ft 0 kts 233°
2026-05-05 15:18 41.26711 28.72939 334 ft 5 kts 259°
2026-05-05 15:19 41.26707 28.72891 334 ft 6 kts 270°
2026-05-05 15:19 41.26707 28.72799 334 ft 18 kts 269°
2026-05-05 15:19 41.26705 28.72603 334 ft 21 kts 270°
2026-05-05 15:19 41.26735 28.72518 334 ft 8 kts 348°
2026-05-05 15:20 41.26789 28.72515 334 ft 7 kts 359°
2026-05-05 15:20 41.27011 28.72514 334 ft 70 kts 359°
2026-05-05 15:20 41.27736 28.72482 334 ft 138 kts 359°
2026-05-05 15:20 41.28805 28.72487 733 ft 160 kts
2026-05-05 15:21 41.29918 28.72462 1419 ft 172 kts 359°
2026-05-05 15:21 41.31108 28.72443 2055 ft 184 kts
2026-05-05 15:21 41.32424 28.72466 2554 ft 201 kts
2026-05-05 15:21 41.33899 28.72491 3171 ft 216 kts
2026-05-05 15:22 41.35426 28.72309 3766 ft 231 kts 345°
2026-05-05 15:22 41.36855 28.71234 4451 ft 245 kts 317°
2026-05-05 15:22 41.37788 28.69286 4920 ft 261 kts 292°
2026-05-05 15:22 41.38048 28.66840 4986 ft 269 kts 275°
2026-05-05 15:23 41.38050 28.64372 4978 ft 268 kts 274°
2026-05-05 15:23 41.38035 28.61931 5005 ft 274 kts 270°
2026-05-05 15:23 41.37582 28.59440 5863 ft 283 kts 246°
2026-05-05 15:23 41.36401 28.57373 6784 ft 288 kts 225°
2026-05-05 15:24 41.34737 28.55915 7519 ft 298 kts 207°
2026-05-05 15:24 41.32787 28.55074 8265 ft 304 kts 188°
2026-05-05 15:24 41.30695 28.54942 9003 ft 308 kts 179°
2026-05-05 15:24 41.28598 28.55039 9748 ft 312 kts 177°
2026-05-05 15:25 41.26485 28.55344 10414 ft 317 kts 166°
2026-05-05 15:25 41.24476 28.56282 10806 ft 329 kts 150°
2026-05-05 15:25 41.22710 28.57912 11157 ft 339 kts 136°
2026-05-05 15:25 41.21033 28.59984 11472 ft 353 kts 133°
2026-05-05 15:26 41.19271 28.62318 11822 ft 368 kts 132°
2026-05-05 15:26 41.17466 28.64726 12155 ft 382 kts 132°
2026-05-05 15:26 41.15587 28.67200 12590 ft 392 kts 133°
2026-05-05 15:26 41.13742 28.69599 13227 ft 395 kts 132°
2026-05-05 15:27 41.12626 28.71200 13593 ft 396 kts 128°
2026-05-05 15:27 41.10543 28.74853 14415 ft 398 kts 122°
2026-05-05 15:27 41.09130 28.77692 14981 ft 401 kts 120°
2026-05-05 15:27 41.07787 28.80514 15554 ft 403 kts 119°
2026-05-05 15:28 41.06498 28.83248 16089 ft 405 kts 120°
2026-05-05 15:28 41.05121 28.86038 16618 ft 409 kts 123°
2026-05-05 15:28 41.03505 28.88581 17154 ft 414 kts 136°
2026-05-05 15:28 41.01212 28.90620 17691 ft 420 kts 155°
2026-05-05 15:29 40.98506 28.91701 18261 ft 423 kts 172°
2026-05-05 15:29 40.95605 28.91862 18839 ft 425 kts 183°
2026-05-05 15:29 40.92886 28.91618 19249 ft 430 kts 185°
2026-05-05 15:29 40.89975 28.91281 19812 ft 432 kts 185°
2026-05-05 15:30 40.86980 28.91019 20236 ft 438 kts 181°
2026-05-05 15:30 40.84000 28.91029 20799 ft 439 kts 178°
2026-05-05 15:30 40.80909 28.91206 21253 ft 443 kts 176°
2026-05-05 15:30 40.77921 28.91823 21733 ft 445 kts 162°
2026-05-05 15:31 40.75162 28.93473 22202 ft 445 kts 145°
2026-05-05 15:31 40.72990 28.95917 22636 ft 445 kts 130°
2026-05-05 15:31 40.71196 28.99037 23088 ft 445 kts 121°
2026-05-05 15:31 40.69625 29.02422 23483 ft 448 kts 118°
2026-05-05 15:32 40.68183 29.05803 23880 ft 450 kts 116°
2026-05-05 15:32 40.66769 29.09232 24309 ft 452 kts 116°
2026-05-05 15:32 40.65353 29.12712 24738 ft 454 kts 116°
2026-05-05 15:32 40.63921 29.16245 25135 ft 457 kts 116°
2026-05-05 15:33 40.62490 29.19783 25510 ft 460 kts 116°
2026-05-05 15:33 40.61026 29.23410 25930 ft 462 kts 116°
2026-05-05 15:33 40.59551 29.27061 26266 ft 466 kts 116°
2026-05-05 15:33 40.57944 29.30433 26664 ft 469 kts 124°
2026-05-05 15:34 40.55885 29.33606 26990 ft 474 kts 133°
2026-05-05 15:34 40.53552 29.36246 27343 ft 478 kts 142°
2026-05-05 15:34 40.50959 29.38387 27797 ft 479 kts 151°
2026-05-05 15:34 40.48096 29.40023 28375 ft 476 kts 160°
2026-05-05 15:35 40.44992 29.41111 28820 ft 477 kts 169°
2026-05-05 15:35 40.41757 29.41558 29290 ft 476 kts 179°
2026-05-05 15:35 40.38537 29.41340 29773 ft 474 kts 188°
2026-05-05 15:35 40.35323 29.40538 30259 ft 472 kts 194°
2026-05-05 15:36 40.32199 29.39457 30650 ft 472 kts 196°
2026-05-05 15:36 40.29040 29.38238 31052 ft 471 kts 197°
2026-05-05 15:36 40.25938 29.36992 31452 ft 470 kts 198°
2026-05-05 15:36 40.22839 29.35729 31809 ft 470 kts 198°
2026-05-05 15:37 40.19719 29.34596 32173 ft 470 kts 194°
2026-05-05 15:37 40.16500 29.33822 32546 ft 471 kts 189°
2026-05-05 15:37 40.13228 29.33398 32847 ft 472 kts 184°
2026-05-05 15:37 40.09951 29.33290 33043 ft 475 kts 181°
2026-05-05 15:38 40.06623 29.33423 33050 ft 476 kts 177°
2026-05-05 15:38 39.99941 29.34657 33044 ft 475 kts 169°
2026-05-05 15:39 39.93249 29.36859 33034 ft 475 kts 165°
2026-05-05 15:39 39.86843 29.39607 33040 ft 477 kts 159°
2026-05-05 15:40 39.80736 29.42946 33045 ft 477 kts 156°
2026-05-05 15:40 39.74709 29.46404 33043 ft 477 kts 156°
2026-05-05 15:41 39.68659 29.49829 33046 ft 477 kts 157°
2026-05-05 15:41 39.62570 29.53198 33042 ft 477 kts 158°
2026-05-05 15:42 39.56491 29.56326 33042 ft 478 kts 159°
2026-05-05 15:42 39.50318 29.59372 33040 ft 477 kts 159°
2026-05-05 15:43 39.44203 29.62377 33030 ft 478 kts 159°
2026-05-05 15:43 39.38164 29.65355 33028 ft 477 kts 160°
2026-05-05 15:44 39.32068 29.68369 33030 ft 479 kts 160°
2026-05-05 15:44 39.26006 29.71369 33028 ft 478 kts 160°
2026-05-05 15:45 39.19948 29.74365 33028 ft 478 kts 160°
2026-05-05 15:45 39.13860 29.77371 33021 ft 478 kts 160°
2026-05-05 15:46 39.07870 29.80322 33018 ft 478 kts 160°
2026-05-05 15:46 39.01827 29.83294 33016 ft 478 kts 160°
2026-05-05 15:47 38.95870 29.86219 33015 ft 478 kts 160°
2026-05-05 15:47 38.90142 29.89026 33010 ft 478 kts 160°
2026-05-05 15:48 38.84409 29.91804 33009 ft 478 kts 161°
2026-05-05 15:48 38.78461 29.94632 33009 ft 478 kts 161°
2026-05-05 15:49 38.72412 29.97492 33006 ft 478 kts 161°
2026-05-05 15:49 38.66394 30.00335 32999 ft 479 kts 161°
2026-05-05 15:50 38.60722 30.03013 33015 ft 479 kts 161°
2026-05-05 15:50 38.55088 30.05671 33019 ft 479 kts 161°
2026-05-05 15:51 38.49422 30.08341 33028 ft 480 kts 161°
2026-05-05 15:51 38.43700 30.11033 33029 ft 480 kts 161°
2026-05-05 15:52 38.37926 30.13749 32857 ft 471 kts 161°
2026-05-05 15:52 38.34874 30.15182 32008 ft 477 kts 162°
2026-05-05 15:52 38.31802 30.16615 30922 ft 487 kts 162°
2026-05-05 15:52 38.28763 30.18019 30175 ft 486 kts 162°
2026-05-05 15:53 38.25600 30.19474 29548 ft 481 kts 162°
2026-05-05 15:53 38.22479 30.20905 29017 ft 475 kts 162°
2026-05-05 15:53 38.19417 30.22310 28362 ft 471 kts 162°
2026-05-05 15:53 38.16398 30.23694 27721 ft 468 kts 162°
2026-05-05 15:54 38.13372 30.25081 27144 ft 462 kts 162°
2026-05-05 15:54 38.10370 30.26457 26503 ft 459 kts 162°
2026-05-05 15:54 38.07415 30.27808 26061 ft 451 kts 162°
2026-05-05 15:54 38.04610 30.29146 25865 ft 439 kts 160°
2026-05-05 15:55 38.02007 30.30642 25712 ft 429 kts 154°
2026-05-05 15:55 37.99598 30.32437 25587 ft 418 kts 148°
2026-05-05 15:55 37.97372 30.34417 25456 ft 407 kts 144°
2026-05-05 15:55 37.95268 30.36464 25272 ft 398 kts 143°
2026-05-05 15:56 37.93212 30.38541 25055 ft 393 kts 142°
2026-05-05 15:56 37.91093 30.40667 25060 ft 394 kts 145°
2026-05-05 15:56 37.88777 30.42453 25054 ft 395 kts 160°
2026-05-05 15:56 37.86202 30.43345 25058 ft 388 kts 177°
2026-05-05 15:57 37.83722 30.43406 25059 ft 381 kts 189°
2026-05-05 15:57 37.81397 30.42968 25053 ft 377 kts 197°
2026-05-05 15:57 37.79112 30.42235 25045 ft 374 kts 203°
2026-05-05 15:57 37.76917 30.41080 25044 ft 367 kts 213°
2026-05-05 15:58 37.74900 30.39579 25048 ft 364 kts 218°
2026-05-05 15:58 37.72875 30.37860 25043 ft 363 kts 220°
2026-05-05 15:58 37.71096 30.36285 25039 ft 363 kts 221°
2026-05-05 15:58 37.69264 30.34655 25032 ft 362 kts 220°
2026-05-05 15:59 37.67328 30.32944 25031 ft 362 kts 220°
2026-05-05 15:59 37.65417 30.31271 25028 ft 362 kts 220°
2026-05-05 15:59 37.63467 30.29593 25024 ft 362 kts 219°
2026-05-05 15:59 37.61348 30.28025 25022 ft 367 kts 209°
2026-05-05 16:00 37.59020 30.27053 25023 ft 375 kts 197°
2026-05-05 16:00 37.56435 30.26523 25024 ft 378 kts 192°
2026-05-05 16:00 37.53806 30.26169 25019 ft 379 kts 190°
2026-05-05 16:00 37.51161 30.25870 25012 ft 379 kts 190°
2026-05-05 16:01 37.48577 30.25579 25012 ft 379 kts 190°
2026-05-05 16:01 37.45932 30.25266 25011 ft 379 kts 190°
2026-05-05 16:01 37.43395 30.24948 25012 ft 379 kts 191°
2026-05-05 16:01 37.40865 30.24620 25016 ft 378 kts 191°
2026-05-05 16:02 37.38385 30.24291 25015 ft 378 kts 191°
2026-05-05 16:02 37.35931 30.23963 25013 ft 379 kts 191°
2026-05-05 16:02 37.33416 30.23626 25017 ft 378 kts 191°
2026-05-05 16:02 37.30946 30.23293 25021 ft 378 kts 191°
2026-05-05 16:03 37.28456 30.22956 25023 ft 377 kts 191°
2026-05-05 16:03 37.25882 30.22605 25022 ft 378 kts 191°
2026-05-05 16:03 37.23357 30.22258 25016 ft 380 kts 191°
2026-05-05 16:03 37.20828 30.21913 25014 ft 379 kts 191°
2026-05-05 16:04 37.18324 30.21576 25019 ft 377 kts 192°
2026-05-05 16:04 37.15839 30.21240 25024 ft 377 kts 191°
2026-05-05 16:04 37.13319 30.20897 25021 ft 378 kts 191°
2026-05-05 16:04 37.10735 30.20566 25019 ft 380 kts 187°
2026-05-05 16:05 37.08116 30.20848 25011 ft 389 kts 168°
2026-05-05 16:05 37.05654 30.22186 25013 ft 398 kts 148°
2026-05-05 16:05 37.03642 30.24465 25022 ft 401 kts 127°
2026-05-05 16:05 37.02334 30.27344 25015 ft 401 kts 108°
2026-05-05 16:06 37.01810 30.30543 25010 ft 394 kts 88°
2026-05-05 16:06 37.02112 30.33713 25011 ft 379 kts 67°
2026-05-05 16:06 37.03223 30.36547 25008 ft 356 kts 46°
2026-05-05 16:06 37.04913 30.38536 25014 ft 333 kts 24°
2026-05-05 16:07 37.06872 30.39693 25013 ft 317 kts 12°
2026-05-05 16:07 37.08900 30.40431 25009 ft 308 kts
2026-05-05 16:07 37.10884 30.40888 25006 ft 304 kts
2026-05-05 16:07 37.12918 30.41118 25002 ft 302 kts 356°
2026-05-05 16:08 37.14998 30.41087 25003 ft 299 kts 350°
2026-05-05 16:08 37.17043 30.40770 25004 ft 296 kts 344°
2026-05-05 16:08 37.19015 30.40170 25007 ft 293 kts 340°
2026-05-05 16:08 37.20971 30.39586 25010 ft 296 kts 345°
2026-05-05 16:09 37.23008 30.39309 25010 ft 301 kts 353°
2026-05-05 16:09 37.25078 30.39325 25010 ft 303 kts 357°
2026-05-05 16:09 37.27156 30.39508 25006 ft 302 kts 359°
2026-05-05 16:09 37.29239 30.39768 25010 ft 304 kts
2026-05-05 16:10 37.31289 30.40047 25014 ft 305 kts
2026-05-05 16:10 37.33345 30.40330 25016 ft 304 kts
2026-05-05 16:10 37.35453 30.40619 25011 ft 304 kts 360°
2026-05-05 16:10 37.37466 30.40894 25012 ft 304 kts
2026-05-05 16:11 37.39404 30.41157 25013 ft 304 kts 360°
2026-05-05 16:11 37.44924 30.41896 24437 ft 294 kts
2026-05-05 16:12 37.46768 30.42143 24158 ft 291 kts 360°
2026-05-05 16:12 37.50431 30.42671 23576 ft 278 kts
2026-05-05 16:13 37.55086 30.45155 23157 ft 284 kts 31°
2026-05-05 16:13 37.56468 30.46700 22895 ft 287 kts 39°
2026-05-05 16:13 37.57632 30.48510 22610 ft 291 kts 51°
2026-05-05 16:14 37.59059 30.52737 22005 ft 292 kts 71°
2026-05-05 16:14 37.59309 30.57532 21425 ft 295 kts 95°
2026-05-05 16:15 37.58202 30.62173 20770 ft 292 kts 114°
2026-05-05 16:15 37.55854 30.65970 20105 ft 292 kts 140°
2026-05-05 16:16 37.52596 30.68598 19322 ft 284 kts 162°
2026-05-05 16:16 37.49042 30.69494 18833 ft 279 kts 180°
2026-05-05 16:17 37.45522 30.68945 18303 ft 272 kts 202°
2026-05-05 16:17 37.43928 30.68134 18045 ft 266 kts 210°
2026-05-05 16:18 37.41177 30.65744 17540 ft 257 kts 231°
2026-05-05 16:18 37.40184 30.64143 17287 ft 249 kts 243°
2026-05-05 16:18 37.38681 30.60633 16706 ft 244 kts 246°
2026-05-05 16:19 37.37860 30.58820 16419 ft 242 kts 244°
2026-05-05 16:19 37.37059 30.57146 16166 ft 239 kts 243°
2026-05-05 16:19 37.35086 30.54260 15781 ft 238 kts 214°
2026-05-05 16:20 37.32221 30.52868 15372 ft 243 kts 194°
2026-05-05 16:20 37.29148 30.52329 14886 ft 241 kts 189°
2026-05-05 16:21 37.25987 30.51913 14351 ft 238 kts 189°
2026-05-05 16:22 37.21202 30.51258 13513 ft 235 kts 189°
2026-05-05 16:22 37.18132 30.50836 13089 ft 231 kts 189°
2026-05-05 16:23 37.15137 30.50420 12634 ft 229 kts 189°
2026-05-05 16:23 37.13678 30.50217 12375 ft 227 kts 189°
2026-05-05 16:23 37.10791 30.50543 11918 ft 229 kts 153°
2026-05-05 16:24 37.09609 30.51677 11654 ft 228 kts 132°
2026-05-05 16:24 37.08750 30.53167 11433 ft 226 kts 117°
2026-05-05 16:24 37.08141 30.56523 11124 ft 212 kts 94°
2026-05-05 16:25 37.08016 30.58214 10842 ft 212 kts 94°
2026-05-05 16:25 37.08157 30.61448 10314 ft 206 kts 65°
2026-05-05 16:25 37.08834 30.62829 10127 ft 203 kts 47°
2026-05-05 16:26 37.10911 30.64606 9729 ft 196 kts 12°
2026-05-05 16:26 37.13380 30.64969 9284 ft 192 kts
2026-05-05 16:27 37.14613 30.65118 9097 ft 194 kts
2026-05-05 16:27 37.15908 30.65295 8890 ft 191 kts
2026-05-05 16:27 37.17183 30.65473 8625 ft 190 kts
2026-05-05 16:27 37.18460 30.65649 8433 ft 188 kts
2026-05-05 16:28 37.19680 30.65853 8243 ft 190 kts 11°
2026-05-05 16:28 37.20727 30.66387 8014 ft 193 kts 32°
2026-05-05 16:28 37.21709 30.67315 7799 ft 190 kts 36°
2026-05-05 16:28 37.22670 30.68249 7623 ft 189 kts 35°
2026-05-05 16:29 37.23658 30.69167 7438 ft 189 kts 34°
2026-05-05 16:29 37.24633 30.70129 7235 ft 187 kts 42°
2026-05-05 16:29 37.25323 30.71403 7006 ft 184 kts 64°
2026-05-05 16:29 37.25764 30.72801 6780 ft 180 kts 66°
2026-05-05 16:30 37.26206 30.74136 6606 ft 176 kts 64°
2026-05-05 16:30 37.26510 30.75001 6494 ft 177 kts 63°
2026-05-05 16:30 37.27140 30.76763 6262 ft 177 kts 63°
2026-05-05 16:30 37.27618 30.78096 6072 ft 176 kts 63°
2026-05-05 16:31 37.28001 30.79466 5890 ft 177 kts 79°
2026-05-05 16:31 37.27898 30.80842 5794 ft 170 kts 105°
2026-05-05 16:31 37.27349 30.82020 5799 ft 174 kts 135°
2026-05-05 16:31 37.26408 30.82777 5774 ft 177 kts 157°
2026-05-05 16:32 37.25298 30.83105 5559 ft 177 kts 180°
2026-05-05 16:32 37.24165 30.83005 5328 ft 174 kts 186°
2026-05-05 16:32 37.23029 30.82921 5090 ft 174 kts 182°
2026-05-05 16:32 37.21893 30.82899 4859 ft 173 kts 181°
2026-05-05 16:33 37.20753 30.82898 4627 ft 170 kts 181°
2026-05-05 16:33 37.19661 30.82901 4479 ft 166 kts 181°
2026-05-05 16:33 37.18558 30.82903 4504 ft 170 kts 181°
2026-05-05 16:33 37.17428 30.82905 4498 ft 169 kts 181°
2026-05-05 16:34 37.16274 30.82889 4494 ft 169 kts 184°
2026-05-05 16:34 37.15154 30.82774 4493 ft 169 kts 188°
2026-05-05 16:34 37.14035 30.82602 4491 ft 168 kts 188°
2026-05-05 16:34 37.12928 30.82432 4397 ft 170 kts 188°
2026-05-05 16:35 37.11797 30.82260 4178 ft 171 kts 188°
2026-05-05 16:35 37.10713 30.82105 3950 ft 167 kts 188°
2026-05-05 16:35 37.09591 30.81948 3725 ft 168 kts 188°
2026-05-05 16:35 37.08492 30.81796 3503 ft 167 kts 188°
2026-05-05 16:36 37.07378 30.81643 3283 ft 166 kts 188°
2026-05-05 16:36 37.06266 30.81490 3065 ft 166 kts 188°
2026-05-05 16:36 37.05175 30.81340 2845 ft 164 kts 188°
2026-05-05 16:36 37.04069 30.81188 2626 ft 163 kts 188°
2026-05-05 16:37 37.02967 30.81037 2414 ft 162 kts 188°
2026-05-05 16:37 37.01864 30.80886 2196 ft 161 kts 188°
2026-05-05 16:37 37.00778 30.80737 1982 ft 160 kts 188°
2026-05-05 16:37 36.99747 30.80596 1784 ft 158 kts 188°
2026-05-05 16:38 36.98713 30.80454 1584 ft 157 kts 187°
2026-05-05 16:38 36.97689 30.80315 1385 ft 154 kts 187°
2026-05-05 16:38 36.96680 30.80176 1190 ft 151 kts 187°
2026-05-05 16:38 36.95727 30.80046 1009 ft 149 kts 186°
2026-05-05 16:39 36.94766 30.79914 829 ft 146 kts 186°
2026-05-05 16:39 36.93866 30.79791 658 ft 144 kts 186°
2026-05-05 16:39 36.92952 30.79663 482 ft 142 kts 185°
2026-05-05 16:39 36.92053 30.79543 314 ft 139 kts 185°
2026-05-05 16:40 36.91184 30.79425 176 ft 134 kts 185°
2026-05-05 16:40 36.90449 30.79334 177 ft 86 kts 186°
2026-05-05 16:40 36.90064 30.79276 177 ft 40 kts 189°
2026-05-05 16:40 36.89814 30.79239 177 ft 36 kts 185°
2026-05-05 16:41 36.89588 30.79237 177 ft 33 kts 167°
2026-05-05 16:41 36.89414 30.79329 177 ft 16 kts 155°
2026-05-05 16:41 36.89399 30.79339 177 ft 1 kts 143°
2026-05-05 16:41 36.89417 30.79388 177 ft 13 kts 31°
2026-05-05 16:42 36.89495 30.79410 177 ft 16 kts
2026-05-05 16:42 36.89603 30.79426 177 ft 16 kts
2026-05-05 16:42 36.89668 30.79495 177 ft 13 kts 96°
2026-05-05 16:42 36.89657 30.79604 177 ft 12 kts 95°
2026-05-05 16:43 36.89650 30.79704 177 ft 10 kts 96°
2026-05-05 16:43 36.89642 30.79793 177 ft 9 kts 97°
2026-05-05 16:43 36.89645 30.79863 177 ft 7 kts 59°
2026-05-05 16:43 36.89681 30.79899 177 ft 5 kts 44°
2026-05-05 16:44 36.89698 30.79929 177 ft 3 kts 57°
2026-05-05 16:44 36.89709 30.79950 177 ft 3 kts 58°
2026-05-05 16:44 36.89719 30.79973 177 ft 2 kts 64°
2026-05-05 16:44 36.89722 30.79982 177 ft 0 kts 59°
2026-05-05 16:45 36.89726 30.79990 177 ft 0 kts 65°
2026-05-05 16:45 36.89728 30.79996 177 ft 1 kts 59°
2026-05-05 16:45 36.89735 30.80007 177 ft 0 kts 58°
2026-05-05 16:45 36.89735 30.80008 177 ft 0 kts 58°
2026-05-05 16:46 36.89736 30.80010 177 ft 0 kts 58°